天目一号 11星 (TIANMU-1 11)

导读

TIANMU-1 11即天目一号11星,是中国研制的气象卫星,2023年12月25日在酒泉卫星发射中心搭载快舟一号甲运载火箭发射升空。它属于天目一号气象星座,由中国航天科工集团研制运营,运行于太阳同步轨道。主要任务是获取全球大气环境要素信息,可实现对海洋、大气层、电离层的一体化立体探测,为全球气象监测与预报提供支撑,目前卫星仍在轨正常工作。

Basic Information
目录编号:
58645
目录名称:
TIANMU-1 11
国际标识:
2023-205A
轨道中心:
EARTH
卫星名称:
天目一号 11星
卫星全名:
天目一号 11星 (TIANMU-1 11)
卫星状态:
在轨 (已飞行946 天)
发射日期:
2023-12-25 UTC
国别 :
中国 (CN)
星等 :
--
Orbit Information
数据来源 国际轨道数据 AOE轨道数据
星历时间 2026-07-28T08:06:44+0800
11小时前
查看轨道信息
2026-07-24T14:00:00+0800
4天前
查看轨道信息
半长轴 6861.794km 6861.933km
偏心率 0.0007791 0.0007303
轨道倾角 97.344° 97.345°
近地点辐角 207.442° 223.296°
升交点赤经 229.930° 226.233°
平近点角 152.641° 25.044°
近地点 478.31km 478.784km
远地点 489.004km 488.808km
周期 94.279分钟 94.282分钟
每日圈数 15.273771 15.273308
Detailed Information
覆盖范围:
全球
运营商:
中国航天科工集团有限公司
运营商所在国:
中国
制造商(研发单位):
中国航天科工集团有限公司
制造商所在国:
中国
使用方式:
暂无
Satellite Introduction
天目一号气象星座,是由中国航天科工集团落户西部(重庆)科学城西永微电园企业研制,主要用于获取全球大气环境要素信息,建成后可实现全球全天候海洋、大气层、电离层的立体化、一体化探测。该卫星仍在工作。
2D Orbit Map
3D Orbit Map
Orbit Altitude Analysis Chart
Orbit Inclination Analysis Chart
Orbit Comprehensive Analysis Chart
View Comprehensive Chart